This demonstration page uses our WeatherBlox Daily Observations layout. Learn more.

Left ArrowRight Arrow

Hourly Observations for May 23, 2021

Temp ( °F °C ) Dew Point ( °F °C ) Humidity (%) Winds ( mph kmh ) Pressure ( in mb ) Visibility ( mi km ) Precip ( " mm )
12:53 am 00:53 Mostly Cloudy 64 17.8 45 7.2 50 50 N 6 9 29.95 1014 10 16 0.00 0.00
1:53 am 01:53 Mostly Cloudy 63 17.2 44 6.7 50 50 N 6 9 29.96 1014 10 16 0.00 0.00
2:53 am 02:53 Cloudy 63 17.2 43 6.1 48 48 N 7 11 29.95 1014 10 16 0.00 0.00
3:53 am 03:53 Partly Cloudy 61 16.1 44 6.7 54 54 NNW 3 6 29.97 1015 10 16 0.00 0.00
4:53 am 04:53 Mostly Clear 56 13.3 43 6.1 62 62 ESE 7 11 29.99 1016 10 16 0.00 0.00
5:53 am 05:53 Mostly Cloudy 58 14.4 44 6.7 60 60 S 5 7 30.01 1016 10 16 0.00 0.00
6:53 am 06:53 Mostly Cloudy 58 14.4 45 7.2 62 62 ESE 3 6 30.04 1017 10 16 0.00 0.00
7:53 am 07:53 Mostly Cloudy 61 16.1 44 6.7 54 54 WSW 5 7 30.07 1018 10 16 0.00 0.00
8:53 am 08:53 Sunny 64 17.8 40 4.4 41 41 S 7 11 30.08 1019 10 16 0.00 0.00
9:53 am 09:53 Sunny 68 20 40 4.4 36 36 VRB 5 7 30.08 1019 10 16 0.00 0.00
10:53 am 10:53 Sunny 71 21.7 39 3.9 31 31 S 7 11 30.08 1019 10 16 0.00 0.00
11:53 am 11:53 Sunny 74 23.3 35 1.7 24 24 S 8 13 30.08 1019 10 16 0.00 0.00
12:53 pm 12:53 Sunny 75 23.9 32 0 21 21 VRB 5 7 30.06 1018 10 16 0.00 0.00
1:53 pm 13:53 Sunny 77 25 31 -0.6 18 18 Calm 30.05 1018 10 16 0.00 0.00
2:53 pm 14:53 Sunny 79 26.1 31 -0.6 17 17 SSE 8 13 30.04 1017 10 16 0.00 0.00
3:53 pm 15:53 Sunny 79 26.1 35 1.7 20 20 VRB 7 11 30.02 1017 10 16 0.00 0.00
4:53 pm 16:53 Sunny 80 26.7 34 1.1 19 19 SSE 12 19 30.01 1016 10 16 0.00 0.00
5:53 pm 17:53 Sunny 80 26.7 36 2.2 20 20 SSE 13 20 30.00 1016 10 16 0.00 0.00
6:53 pm 18:53 Sunny 79 26.1 35 1.7 20 20 S 12 19 30.00 1016 10 16 0.00 0.00
7:53 pm 19:53 Sunny 77 25 35 1.7 22 22 S 9 15 30.00 1016 10 16 0.00 0.00
8:53 pm 20:53 Clear 72 22.2 37 2.8 28 28 S 6 9 30.02 1017 10 16 0.00 0.00
9:53 pm 21:53 Clear 67 19.4 40 4.4 37 37 SE 6 9 30.04 1017 10 16 0.00 0.00
10:53 pm 22:53 Clear 67 19.4 41 5 39 39 Calm 30.05 1018 10 16 0.00 0.00
11:53 pm 23:53 Clear 63 17.2 41 5 45 45 NNE 5 7 30.05 1018 10 16 0.00 0.00

Powered by AerisWeather